Flag for Canada Weather past 2 weeks in Red Deer, Alberta, Canada

Now
36 °F

Passing clouds.


Feels Like: 31 °F
Forecast: 29 / 57 °F
Wind: 6 mph from South

Location: Red Deer


UV Index: 3 (Moderate)

Visibility: 15 mi


Pressure: 30.14 "Hg

Humidity: 81%

Dew point: 30 °F

Location of Red DeerLocation

Historic Weather in Red Deer

°F

Red Deer temperature yesterday

Maximum temperature yesterday: 55 °F (at 2:00 PM)
Minimum temperature yesterday: 36 °F (at 2:00 AM)
Average temperature yesterday: 46 °F

Past Weeks' High & Low Weather Summary

 TemperatureHumidityPressure
High55 °F (Apr 20, 2:00 PM)100% (Apr 17, 5:00 AM)30.50 "Hg (Apr 17, 5:00 AM)
Low16 °F (Apr 13, 5:00 AM)28% (Apr 14, 6:00 PM)29.66 "Hg (Apr 8, 9:00 PM)
Average36 °F72%29.97 "Hg
* Reported Apr 6 1:00 AM — Apr 21 1:00 AM, Red Deer, Weather by CustomWeather, © 2014

Note: Actual official high and low records may vary slightly from our data, if they occured in-between our weather recording intervals... More about our weather records

Advertising

Historic Weather Conditions — Data for Previous 24 hours

 ConditionsComfort  
Time TempWeatherWind HumidityBarometerVisibility
1:00 AM
Apr 21
37 °FPassing clouds.2 mph75%30.14 "Hg15 mi
12:00 AM37 °FClear.No wind75%30.13 "Hg15 mi
11:00 PM
Apr 20
39 °FPassing clouds.9 mph75%30.12 "Hg15 mi
10:00 PM43 °FPassing clouds.8 mph76%30.11 "Hg15 mi
9:00 PM48 °FPassing clouds.6 mph50%30.10 "Hg15 mi
8:00 PM54 °FPartly sunny.2 mph38%30.08 "Hg15 mi
7:00 PM54 °FPassing clouds.3 mph41%30.08 "Hg15 mi
6:00 PM54 °FPassing clouds.7 mph47%30.07 "Hg15 mi
5:00 PM54 °FPassing clouds.3 mph41%30.07 "Hg15 mi
4:00 PM54 °FPassing clouds.13 mph51%30.06 "Hg15 mi
3:00 PM54 °FScattered clouds.10 mph41%30.05 "Hg15 mi
2:00 PM55 °FPassing clouds.12 mph38%30.03 "Hg15 mi
1:00 PM54 °FPassing clouds.13 mph41%30.02 "Hg15 mi
12:00 PM50 °FScattered clouds.8 mph50%30.01 "Hg15 mi
11:00 AM48 °FScattered clouds.9 mph54%29.99 "Hg15 mi
10:00 AM46 °FPartly sunny.9 mph53%29.97 "Hg15 mi
9:00 AM43 °FBroken clouds.10 mph57%29.95 "Hg15 mi
8:00 AM43 °FOvercast.10 mph57%29.90 "Hg15 mi
7:00 AM39 °FPassing clouds.9 mph70%29.88 "Hg15 mi
6:00 AM41 °FOvercast.8 mph66%29.87 "Hg15 mi
5:00 AM39 °FOvercast.12 mph70%29.85 "Hg15 mi
4:00 AM39 °FPassing clouds.3 mph70%29.82 "Hg15 mi
3:00 AM37 °FPassing clouds.5 mph75%29.79 "Hg15 mi
2:00 AM36 °FPassing clouds.3 mph81%29.77 "Hg15 mi
Weather by CustomWeather, © 2014

See weather overview